PA3DZX-13 Weather Reports


time (UTC)temp
F
wind
direction
speed
knots
gust
knots
rain 1hr
in
rain 24hr
in
rain mn
in
humidity
%
barometer
mb
20260906002109 46 168 1.7 3.5 0.00 0.00 0.00 97 1026.5
20260906000609 46 186 0.0 0.0 0.00 0.00 0.00 94 1026.4
20260905235108 48 196 1.7 1.7 0.00 0.00 0.00 93 1026.4
20260905233609 48 220 0.0 1.7 0.00 0.00 0.00 93 1026.3
20260905232108 48 220 0.0 1.7 0.00 0.00 0.00 93 1026.3
20260905230608 50 195 0.0 1.7 0.00 0.00 0.00 93 1026.2
20260905225107 50 220 1.7 1.7 0.00 0.00 0.00 93 1026.0
20260905223608 50 238 1.7 1.7 0.00 0.00 0.00 92 1025.8
20260905222107 50 258 1.7 1.7 0.00 0.00 0.00 88 1025.8
20260905220606 51 285 1.7 1.7 0.00 0.00 0.00 90 1025.7
20260905215105 51 251 1.7 1.7 0.00 0.00 0.00 89 1025.7
20260905213605 51 231 1.7 3.5 0.00 0.00 0.00 88 1025.6
20260905212104 51 267 3.5 3.5 0.00 0.00 0.00 84 1025.6
20260905210605 51 245 3.5 3.5 0.00 0.00 0.00 85 1025.5
20260905205105 51 263 1.7 3.5 0.00 0.00 0.00 84 1025.4
20260905203604 51 259 1.7 3.5 0.00 0.00 0.00 83 1025.3
20260905202105 53 265 1.7 3.5 0.00 0.00 0.00 83 1025.3
20260905200605 53 265 3.5 5.2 0.00 0.00 0.00 78 1025.2
20260905195104 55 241 1.7 3.5 0.00 0.00 0.00 79 1025.0
20260905193604 55 262 1.7 3.5 0.00 0.00 0.00 76 1024.9
20260905192104 57 283 3.5 5.2 0.00 0.00 0.00 71 1024.7
20260905190604 57 285 3.5 7.0 0.00 0.00 0.00 72 1024.7
20260905185103 57 285 3.5 5.2 0.00 0.00 0.00 72 1024.4
20260905183603 59 284 3.5 9.6 0.00 0.00 0.00 70 1024.3
20260905182102 60 296 5.2 9.6 0.00 0.00 0.00 67 1024.2
20260905180602 60 299 5.2 9.6 0.00 0.00 0.00 66 1024.2
20260905175101 62 299 9.6 14.8 0.00 0.00 0.00 63 1024.0
20260905173601 62 299 9.6 14.8 0.00 0.00 0.00 63 1024.0
20260905172101 62 275 11.3 17.4 0.00 0.00 0.00 57 1023.6
20260905170601 64 274 11.3 17.4 0.00 0.00 0.00 56 1023.5
20260905165100 64 283 9.6 17.4 0.00 0.00 0.00 55 1023.1
20260905163600 64 290 7.0 17.4 0.00 0.00 0.00 58 1022.9
20260905162100 64 278 11.3 19.1 0.00 0.00 0.00 57 1022.7
20260905160600 66 282 9.6 14.8 0.00 0.00 0.00 60 1022.6
20260905155100 64 295 9.6 13.0 0.00 0.00 0.00 62 1022.4
20260905153600 64 300 7.0 11.3 0.00 0.00 0.00 64 1022.3
20260905152059 64 306 7.0 13.0 0.00 0.00 0.00 66 1022.2
20260905150559 64 298 7.0 13.0 0.00 0.00 0.00 65 1022.1
20260905145058 64 261 11.3 17.4 0.00 0.00 0.00 62 1021.8
20260905143559 64 259 11.3 17.4 0.00 0.00 0.00 62 1021.8
20260905142058 64 270 11.3 20.9 0.00 0.00 0.00 63 1021.6
20260905140557 64 269 13.0 20.9 0.00 0.00 0.00 63 1021.6
20260905135057 66 271 11.3 19.1 0.00 0.00 0.00 61 1021.2
20260905133558 66 264 11.3 19.1 0.00 0.00 0.00 59 1021.1
20260905132057 66 273 11.3 19.1 0.00 0.00 0.00 60 1021.2
20260905130557 66 276 13.0 22.6 0.00 0.00 0.00 59 1021.1
20260905125057 64 273 11.3 20.9 0.00 0.00 0.00 61 1020.8
20260905123558 64 269 11.3 19.1 0.00 0.00 0.00 64 1020.8
20260905122057 66 279 13.0 19.1 0.00 0.00 0.00 61 1020.5
20260905120557 64 288 11.3 20.9 0.00 0.00 0.00 62 1020.5
20260905115056 64 300 11.3 17.4 0.00 0.00 0.00 61 1020.2
20260905113556 64 304 9.6 17.4 0.00 0.00 0.00 62 1020.0
20260905112055 66 288 9.6 17.4 0.00 0.00 0.00 61 1019.7
20260905110555 64 284 9.6 17.4 0.00 0.00 0.00 63 1019.9
20260905105055 64 259 13.0 20.9 0.00 0.00 0.00 65 1019.6
20260905103555 66 256 13.0 22.6 0.00 0.00 0.00 63 1019.4
20260905102054 64 260 13.0 19.1 0.00 0.00 0.00 68 1019.2
20260905101825 64 260 13.0 19.1 0.00 0.00 0.00 68 1019.2
20260905100324 62 253 13.0 20.9 0.00 0.00 0.00 70 1019.0
20260905095529 64 252 13.0 22.6 0.00 0.00 0.00 64 1018.8
20260905094027 66 249 13.0 25.2 0.00 0.00 0.00 67 1018.6
20260905092527 64 257 17.4 25.2 0.00 0.00 0.00 68 1018.6
20260905091026 64 251 13.0 20.9 0.00 0.00 0.00 71 1018.4
20260905085526 64 243 11.3 19.1 0.00 0.00 0.00 75 1018.3
20260905084025 64 237 13.0 22.6 0.00 0.00 0.00 73 1018.0
20260905082525 62 244 13.0 22.6 0.00 0.00 0.00 73 1017.9
20260905081025 62 243 13.0 20.9 0.00 0.00 0.00 75 1017.7
20260905075524 62 239 13.0 20.9 0.00 0.00 0.00 75 1017.6
20260905074023 60 240 9.6 14.8 0.00 0.00 0.00 76 1017.4
20260905072523 60 238 11.3 14.8 0.00 0.00 0.00 77 1017.3
20260905071023 59 239 11.3 17.4 0.00 0.00 0.00 78 1017.3
20260905065523 59 236 9.6 13.0 0.00 0.00 0.00 79 1017.2
20260905064023 59 236 9.6 13.0 0.00 0.00 0.00 79 1017.2
20260905062523 57 230 7.0 11.3 0.00 0.00 0.00 81 1017.1
20260905061023 55 227 7.0 11.3 0.00 0.00 0.00 83 1016.9
20260905055523 55 225 7.0 11.3 0.00 0.00 0.00 83 1016.7
20260905054023 55 223 5.2 11.3 0.00 0.00 0.00 85 1016.6
20260905052523 55 223 5.2 9.6 0.00 0.00 0.00 85 1016.6
20260905051023 55 223 7.0 9.6 0.00 0.00 0.00 84 1016.5
20260905045523 55 226 5.2 9.6 0.00 0.00 0.00 84 1016.4
20260905044023 55 222 5.2 9.6 0.00 0.00 0.00 84 1016.2
20260905042523 55 228 7.0 9.6 0.00 0.00 0.00 83 1016.2
20260905041022 55 233 5.2 11.3 0.00 0.00 0.00 83 1016.0
20260905035522 55 235 5.2 11.3 0.00 0.00 0.00 82 1016.0
20260905034022 55 229 5.2 9.6 0.00 0.00 0.00 82 1015.9
20260905032522 55 228 5.2 9.6 0.00 0.00 0.00 83 1015.8
20260905031022 55 225 5.2 11.3 0.00 0.00 0.00 82 1015.8
20260905025522 55 233 5.2 11.3 0.00 0.00 0.00 80 1015.8
20260905024022 57 224 5.2 9.6 0.00 0.00 0.00 80 1015.6
20260905022522 55 224 5.2 9.6 0.00 0.00 0.00 81 1015.6
20260905021022 55 223 5.2 9.6 0.00 0.00 0.00 81 1015.5
20260905015522 55 223 5.2 9.6 0.00 0.00 0.00 81 1015.4
20260905014022 57 226 5.2 9.6 0.00 0.00 0.00 80 1015.3
20260905012522 57 230 5.2 9.6 0.00 0.00 0.00 80 1015.3
20260905011022 57 227 5.2 9.6 0.00 0.00 0.00 79 1015.4
20260905005522 57 225 5.2 9.6 0.00 0.00 0.00 80 1015.4
20260905004021 57 227 5.2 9.6 0.00 0.00 0.00 80 1015.3